This demonstration page uses our WeatherBlox Daily Observations layout. Learn more.

Hourly Observations for July 1, 2020

Temp ( °F °C ) Dew Point ( °F °C ) Humidity (%) Winds ( mph kmh ) Pressure ( in mb ) Visibility ( mi km ) Precip ( " mm )
12:21 am 00:21 Cloudy with Nearby Thunderstorms 73 22.8 61 16.1 66 66 N 22 35 29.76 1008 10 16.0934 0 0
12:37 am 00:37 Cloudy with Nearby Thunderstorms 72 22.2 61 16.1 68 68 NW 16 26 29.76 1008 10 16.0934 0 0
12:45 am 00:45 Windy with Storms Likely 70 21.1 63 17.2 79 79 NW 22 35 29.75 1008 9 14.48406 0.001 0.001
12:54 am 00:54 Cloudy with Heavy Thunderstorms 68 20 64 17.8 87 87 NNW 18 30 29.74 1007 5 8.0467 0.001 0.001
1:07 am 01:07 Cloudy with Heavy Thunderstorms 68 20 64 17.8 87 87 NW 17 28 29.76 1008 1.75 2.816345 0.1 2.54
1:20 am 01:20 Cloudy with Heavy Thunderstorms 68 20 64 17.8 87 87 NNW 18 30 29.74 1007 2 3.21868 0.28 7.112
1:29 am 01:29 Cloudy with Heavy Thunderstorms 71 21.7 65 18.3 81 81 NNE 8 13 29.76 1008 1.75 2.816345 0.42 10.668
1:38 am 01:38 Cloudy with Heavy Thunderstorms 68 20 65 18.3 90 90 SE 13 20 29.81 1009 2.5 4.02335 0.53 13.462
1:45 am 01:45 Cloudy with Heavy Thunderstorms 69 20.6 64 17.8 84 84 NE 12 19 29.78 1009 3 4.82802 0.6 15.24
1:48 am 01:48 Cloudy with Heavy Thunderstorms 68 20 64 18 88 88 N 15 24 29.78 1008 1.75 2.816345 0.63 16.002
1:54 am 01:54 Cloudy with Heavy Thunderstorms 68 20 65 18.3 90 90 N 20 31 29.72 1007 1 1.60934 0.77 19.558
2:04 am 02:04 Cloudy with Heavy Thunderstorms 70 21.1 66 18.9 87 87 Calm 29.72 1007 2.5 4.02335 0.21 5.334
2:11 am 02:11 Cloudy with Thunderstorms 70 21.1 66 18.9 87 87 ENE 7 11 29.71 1006 4 6.43736 0.26 6.604
2:38 am 02:38 Cloudy with Heavy Thunderstorms 69 20.6 65 18.3 87 87 NE 17 28 29.75 1008 2 3.21868 0.49 12.446
2:50 am 02:50 Cloudy with Heavy Thunderstorms 70 21 64 18 83 83 NNW 23 37 29.73 1007 1.25 2.011675 0.73 18.542
2:54 am 02:54 Cloudy with Heavy Thunderstorms 69 20.6 65 18.3 87 87 N 21 33 29.71 1006 1 1.60934 0.87 22.098
2:58 am 02:58 Cloudy with Heavy Thunderstorms 69 20.6 65 18.3 87 87 NNE 13 20 29.72 1007 1.25 2.011675 0.13 3.302
3:04 am 03:04 Cloudy with Heavy Thunderstorms 69 20.6 65 18.3 87 87 E 9 15 29.74 1007 3 4.82802 0.21 5.334
3:30 am 03:30 Cloudy with Nearby Thunderstorms 69 20.6 65 18.3 87 87 ESE 13 20 29.73 1007 10 16.0934 0.33 8.382
3:54 am 03:54 Cloudy with Light Thunderstorms 69 20.6 66 18.9 90 90 N 3 6 29.77 1008 10 16.0934 0.33 8.382
4:54 am 04:54 Partly Cloudy 68 20 65 18.3 90 90 E 6 9 29.75 1007 10 16.0934 0.09 2.286
5:07 am 05:07 Mostly Clear with Nearby Thunderstorms 69 20.6 64 17.8 84 84 NE 12 19 29.74 1007 10 16.0934 0 0
5:28 am 05:28 Clear 69 20.6 64 17.8 84 84 E 14 22 29.75 1008 10 16.0934 0 0
5:54 am 05:54 Clear 68 20 65 18.3 90 90 SE 5 7 29.76 1008 10 16.0934 0 0
6:54 am 06:54 Mostly Sunny 68 20 65 18.3 90 90 NNW 10 17 29.8 1009 10 16.0934 0 0
7:54 am 07:54 Sunny 69 20.6 64 17.8 84 84 N 5 7 29.83 1010 10 16.0934 0 0
8:54 am 08:54 Sunny 71 21.7 63 17.2 76 76 Calm 29.84 1011 10 16.0934 0 0
9:54 am 09:54 Sunny 74 23.3 65 18.3 74 74 W 3 6 29.86 1011 10 16.0934 0 0
10:54 am 10:54 Sunny 78 25.6 66 18.9 67 67 WNW 3 6 29.87 1012 10 16.0934 0 0
11:54 am 11:54 Sunny 81 27.2 66 18.9 61 61 VRB 3 6 29.88 1012 10 16.0934 0 0
12:54 pm 12:54 Sunny 83 28.3 67 19.4 59 59 Calm 29.89 1012 10 16.0934 0 0
1:54 pm 13:54 Sunny 86 30 67 19.4 53 53 ENE 6 9 29.87 1012 10 16.0934 0 0
2:54 pm 14:54 Sunny 88 31.1 65 18.3 46 46 E 7 11 29.87 1011 10 16.0934 0 0
3:54 pm 15:54 Mostly Sunny 87 30.6 68 20 53 53 ESE 9 15 29.87 1012 10 16.0934 0 0
4:54 pm 16:54 Sunny 87 30.6 67 19.4 51 51 E 6 9 29.86 1011 10 16.0934 0 0
5:54 pm 17:54 Sunny 86 30 67 19.4 53 53 ESE 6 9 29.87 1012 10 16.0934 0 0
6:54 pm 18:54 Sunny 85 29.4 68 20 57 57 S 3 6 29.88 1012 10 16.0934 0 0
7:54 pm 19:54 Sunny 83 28.3 67 19.4 59 59 S 5 7 29.89 1012 10 16.0934 0 0
8:54 pm 20:54 Sunny 80 26.7 67 19.4 64 64 SSE 3 6 29.9 1012 10 16.0934 0 0
9:54 pm 21:54 Clear 79 26.1 67 19.4 67 67 ESE 3 6 29.91 1013 10 16.0934 0 0
10:54 pm 22:54 Clear 78 25.6 67 19.4 69 69 Calm 29.93 1014 10 16.0934 0 0
11:54 pm 23:54 Clear 72 22.2 67 19.4 84 84 NNE 3 6 29.94 1014 10 16.0934 0 0

Powered by AerisWeather